| time (UTC) | temp F | wind direction | speed MPH | gust MPH | rain 1hr in | rain 24hr in | rain mn in | humidity % | barometer mb |
| 20260903120516 | 74 | 38 | 1.0 | 2.0 | 0.00 | 0.35 | 0.30 | 93 | 1018.3 |
| 20260903115516 | 74 | 44 | 1.0 | 2.0 | 0.00 | 0.35 | 0.30 | 93 | 1018.4 |
| 20260903114516 | 74 | 39 | 1.0 | 2.0 | 0.00 | 0.35 | 0.30 | 93 | 1018.3 |
| 20260903113516 | 74 | 44 | 2.0 | 2.0 | 0.01 | 0.35 | 0.30 | 93 | 1018.2 |
| 20260903112517 | 74 | 41 | 2.0 | 3.0 | 0.19 | 0.35 | 0.30 | 93 | 1018.3 |
| 20260903111537 | 73 | 45 | 2.0 | 3.0 | 0.21 | 0.35 | 0.30 | 93 | 1018.1 |
| 20260903110538 | 74 | 45 | 2.0 | 3.0 | 0.21 | 0.35 | 0.30 | 93 | 1018.0 |
| 20260903105517 | 74 | 50 | 2.0 | 4.0 | 0.21 | 0.35 | 0.30 | 93 | 1018.0 |
| 20260903104517 | 74 | 49 | 2.0 | 3.0 | 0.21 | 0.35 | 0.30 | 93 | 1018.2 |
| 20260903103517 | 74 | 51 | 2.0 | 3.0 | 0.21 | 0.35 | 0.29 | 93 | 1018.1 |
| 20260903102517 | 74 | 49 | 1.0 | 2.0 | 0.02 | 0.16 | 0.11 | 93 | 1018.8 |
| 20260903101518 | 74 | 60 | 1.0 | 2.0 | 0.00 | 0.14 | 0.08 | 93 | 1018.5 |
| 20260903100518 | 74 | 41 | 1.0 | 2.0 | 0.00 | 0.14 | 0.08 | 93 | 1017.5 |
| 20260903095518 | 74 | 39 | 1.0 | 2.0 | 0.00 | 0.14 | 0.08 | 93 | 1017.5 |
| 20260903094518 | 74 | 45 | 2.0 | 2.0 | 0.00 | 0.14 | 0.08 | 93 | 1017.2 |
| 20260903093519 | 74 | 46 | 1.0 | 2.0 | 0.00 | 0.14 | 0.08 | 93 | 1017.3 |
| 20260903092519 | 74 | 42 | 1.0 | 2.0 | 0.00 | 0.14 | 0.08 | 93 | 1017.2 |
| 20260903091519 | 74 | 45 | 2.0 | 3.0 | 0.00 | 0.14 | 0.08 | 93 | 1017.1 |
| 20260903090519 | 74 | 48 | 2.0 | 3.0 | 0.04 | 0.14 | 0.08 | 93 | 1017.2 |
| 20260903085539 | 74 | 45 | 1.0 | 2.0 | 0.08 | 0.14 | 0.08 | 93 | 1017.4 |
| 20260903084519 | 74 | 44 | 2.0 | 3.0 | 0.08 | 0.14 | 0.08 | 93 | 1017.2 |
| 20260903083520 | 75 | 48 | 2.0 | 3.0 | 0.08 | 0.14 | 0.08 | 93 | 1017.3 |
| 20260903082520 | 75 | 47 | 2.0 | 2.0 | 0.08 | 0.14 | 0.08 | 93 | 1017.4 |
| 20260903081520 | 75 | 42 | 1.0 | 2.0 | 0.08 | 0.14 | 0.08 | 93 | 1017.2 |
| 20260903080520 | 75 | 49 | 2.0 | 3.0 | 0.04 | 0.11 | 0.05 | 93 | 1017.4 |
| 20260903075520 | 75 | 41 | 1.0 | 3.0 | 0.00 | 0.07 | 0.01 | 93 | 1017.9 |
| 20260903074520 | 75 | 45 | 1.0 | 2.0 | 0.00 | 0.07 | 0.01 | 93 | 1018.2 |
| 20260903073541 | 75 | 48 | 1.0 | 2.0 | 0.00 | 0.07 | 0.01 | 93 | 1018.1 |
| 20260903072521 | 75 | 40 | 1.0 | 2.0 | 0.00 | 0.07 | 0.01 | 93 | 1017.6 |
| 20260903071521 | 75 | 46 | 2.0 | 3.0 | 0.00 | 0.07 | 0.01 | 93 | 1017.2 |
| 20260903070521 | 75 | 45 | 1.0 | 2.0 | 0.01 | 0.07 | 0.01 | 93 | 1017.2 |
| 20260903065601 | 75 | 47 | 2.0 | 2.0 | 0.01 | 0.07 | 0.01 | 93 | 1016.7 |
| 20260903064521 | 75 | 49 | 2.0 | 3.0 | 0.01 | 0.07 | 0.01 | 92 | 1016.7 |
| 20260903063522 | 75 | 45 | 1.0 | 2.0 | 0.01 | 0.07 | 0.01 | 92 | 1016.7 |
| 20260903062522 | 75 | 42 | 1.0 | 2.0 | 0.01 | 0.07 | 0.01 | 92 | 1016.7 |
| 20260903061522 | 75 | 43 | 1.0 | 2.0 | 0.01 | 0.07 | 0.01 | 92 | 1017.2 |
| 20260903060522 | 75 | 44 | 1.0 | 2.0 | 0.00 | 0.06 | 0.00 | 92 | 1017.0 |
| 20260903055522 | 75 | 41 | 1.0 | 3.0 | 0.00 | 0.06 | 0.00 | 92 | 1016.9 |
| 20260903054522 | 74 | 47 | 1.0 | 2.0 | 0.00 | 0.06 | 0.00 | 92 | 1016.9 |
| 20260903053523 | 74 | 43 | 1.0 | 2.0 | 0.00 | 0.06 | 0.00 | 92 | 1017.5 |
| 20260903052523 | 74 | 41 | 1.0 | 2.0 | 0.00 | 0.06 | 0.00 | 92 | 1017.8 |
| 20260903051523 | 74 | 45 | 1.0 | 2.0 | 0.00 | 0.06 | 0.00 | 92 | 1017.7 |
| 20260903050523 | 74 | 42 | 1.0 | 2.0 | 0.00 | 0.06 | 0.00 | 92 | 1017.4 |
| 20260903045523 | 74 | 38 | 1.0 | 2.0 | 0.00 | 0.08 | 0.00 | 92 | 1017.5 |
| 20260903044523 | 75 | 39 | 1.0 | 3.0 | 0.00 | 0.13 | 0.00 | 91 | 1017.6 |
| 20260903043524 | 75 | 43 | 1.0 | 2.0 | 0.00 | 0.49 | 0.00 | 91 | 1017.6 |
| 20260903042544 | 75 | 39 | 1.0 | 2.0 | 0.00 | 0.56 | 0.00 | 91 | 1017.7 |
| 20260903041524 | 75 | 41 | 1.0 | 2.0 | 0.00 | 0.57 | 0.00 | 91 | 1018.0 |
| 20260903040604 | 75 | 42 | 1.0 | 2.0 | 0.00 | 0.57 | 0.00 | 91 | 1018.3 |
| 20260903035524 | 75 | 39 | 1.0 | 2.0 | 0.00 | 0.57 | 0.57 | 91 | 1018.3 |
| 20260903034524 | 75 | 40 | 1.0 | 2.0 | 0.00 | 0.57 | 0.57 | 91 | 1018.2 |
| 20260903033545 | 75 | 42 | 2.0 | 2.0 | 0.00 | 0.57 | 0.57 | 91 | 1018.0 |
| 20260903032525 | 75 | 42 | 1.0 | 3.0 | 0.00 | 0.57 | 0.57 | 91 | 1017.9 |
| 20260903031525 | 75 | 42 | 2.0 | 3.0 | 0.00 | 0.57 | 0.57 | 91 | 1017.9 |
| 20260903030545 | 75 | 45 | 1.0 | 2.0 | 0.00 | 0.58 | 0.57 | 91 | 1018.0 |
| 20260903025525 | 75 | 43 | 1.0 | 2.0 | 0.00 | 0.59 | 0.57 | 91 | 1018.1 |
| 20260903024525 | 75 | 40 | 1.0 | 3.0 | 0.00 | 0.60 | 0.57 | 91 | 1018.2 |
| 20260903023547 | 75 | 45 | 1.0 | 3.0 | 0.00 | 0.61 | 0.57 | 91 | 1018.1 |
| 20260903022526 | 75 | 42 | 2.0 | 3.0 | 0.00 | 0.61 | 0.57 | 90 | 1017.9 |
| 20260903021526 | 75 | 47 | 2.0 | 3.0 | 0.00 | 0.61 | 0.57 | 90 | 1017.9 |
| 20260903020546 | 75 | 44 | 2.0 | 3.0 | 0.00 | 0.61 | 0.57 | 90 | 1017.8 |
| 20260903015527 | 75 | 42 | 2.0 | 3.0 | 0.00 | 0.61 | 0.57 | 90 | 1017.8 |
| 20260903014527 | 75 | 42 | 2.0 | 3.0 | 0.00 | 0.61 | 0.57 | 90 | 1018.0 |
| 20260903013526 | 76 | 43 | 2.0 | 3.0 | 0.00 | 0.61 | 0.57 | 90 | 1018.0 |
| 20260903012538 | 76 | 47 | 2.0 | 3.0 | 0.00 | 0.61 | 0.57 | 89 | 1018.2 |
| 20260903011516 | 75 | 46 | 2.0 | 3.0 | 0.00 | 0.61 | 0.57 | 89 | 1018.3 |
| 20260903010538 | 75 | 47 | 2.0 | 3.0 | 0.00 | 0.61 | 0.57 | 89 | 1018.3 |
| 20260903005519 | 76 | 44 | 2.0 | 3.0 | 0.00 | 0.61 | 0.57 | 88 | 1018.1 |
| 20260903004536 | 76 | 45 | 2.0 | 3.0 | 0.00 | 0.61 | 0.57 | 88 | 1018.0 |
| 20260903003536 | 76 | 43 | 2.0 | 3.0 | 0.00 | 0.61 | 0.57 | 88 | 1018.0 |
| 20260903002516 | 76 | 46 | 2.0 | 3.0 | 0.00 | 0.61 | 0.57 | 88 | 1017.8 |
| 20260903001516 | 76 | 40 | 2.0 | 4.0 | 0.00 | 0.61 | 0.57 | 88 | 1017.8 |
| 20260903000516 | 76 | 44 | 2.0 | 3.0 | 0.00 | 0.61 | 0.57 | 87 | 1017.9 |
| 20260902235517 | 76 | 46 | 2.0 | 4.0 | 0.00 | 0.61 | 0.57 | 87 | 1018.1 |
| 20260902234517 | 76 | 44 | 2.0 | 4.0 | 0.00 | 0.61 | 0.57 | 87 | 1018.0 |
| 20260902233517 | 76 | 45 | 2.0 | 3.0 | 0.00 | 0.61 | 0.57 | 87 | 1018.0 |
| 20260902232517 | 76 | 49 | 2.0 | 4.0 | 0.00 | 0.61 | 0.57 | 87 | 1017.9 |
| 20260902231517 | 76 | 45 | 3.0 | 4.0 | 0.00 | 0.61 | 0.57 | 87 | 1017.8 |
| 20260902230518 | 76 | 44 | 2.0 | 4.0 | 0.00 | 0.61 | 0.57 | 86 | 1017.9 |
| 20260902225538 | 76 | 44 | 2.0 | 4.0 | 0.00 | 0.61 | 0.57 | 86 | 1018.1 |
| 20260902224518 | 76 | 47 | 2.0 | 4.0 | 0.00 | 0.61 | 0.57 | 86 | 1018.0 |
| 20260902223538 | 76 | 50 | 2.0 | 4.0 | 0.00 | 0.61 | 0.57 | 86 | 1018.0 |
| 20260902222518 | 77 | 48 | 2.0 | 5.0 | 0.00 | 0.61 | 0.57 | 86 | 1017.8 |
| 20260902221518 | 77 | 61 | 2.0 | 3.0 | 0.00 | 0.61 | 0.57 | 86 | 1018.0 |
| 20260902220518 | 77 | 58 | 2.0 | 3.0 | 0.00 | 0.61 | 0.57 | 85 | 1018.4 |
| 20260902215519 | 77 | 47 | 2.0 | 3.0 | 0.00 | 0.61 | 0.57 | 86 | 1018.5 |
| 20260902214516 | 76 | 59 | 2.0 | 2.0 | 0.00 | 0.61 | 0.57 | 86 | 1018.6 |
| 20260902213516 | 76 | 66 | 2.0 | 4.0 | 0.00 | 0.61 | 0.57 | 86 | 1018.4 |
| 20260902212516 | 76 | 50 | 2.0 | 5.0 | 0.00 | 0.61 | 0.57 | 86 | 1018.3 |
| 20260902211516 | 76 | 47 | 2.0 | 4.0 | 0.00 | 0.61 | 0.57 | 87 | 1018.3 |
| 20260902210516 | 76 | 50 | 2.0 | 4.0 | 0.00 | 0.61 | 0.57 | 87 | 1018.6 |
| 20260902205516 | 76 | 48 | 2.0 | 4.0 | 0.02 | 0.61 | 0.57 | 87 | 1018.7 |
| 20260902204537 | 76 | 55 | 2.0 | 3.0 | 0.05 | 0.61 | 0.57 | 87 | 1017.9 |
| 20260902203517 | 76 | 53 | 2.0 | 5.0 | 0.06 | 0.61 | 0.57 | 87 | 1017.3 |
| 20260902202517 | 76 | 69 | 2.0 | 4.0 | 0.06 | 0.61 | 0.57 | 87 | 1016.5 |
| 20260902201517 | 76 | 46 | 1.0 | 5.0 | 0.06 | 0.61 | 0.57 | 87 | 1016.3 |
| 20260902200538 | 76 | 288 | 2.0 | 5.0 | 0.05 | 0.61 | 0.56 | 86 | 1016.1 |
| 20260902195517 | 77 | 303 | 1.0 | 4.0 | 0.04 | 0.59 | 0.55 | 83 | 1017.8 |
| 20260902194538 | 78 | 41 | 2.0 | 4.0 | 0.01 | 0.56 | 0.52 | 81 | 1018.7 |
| 20260902193518 | 78 | 46 | 1.0 | 3.0 | 0.00 | 0.55 | 0.51 | 79 | 1019.1 |
| 20260902192519 | 78 | 43 | 2.0 | 3.0 | 0.00 | 0.55 | 0.51 | 79 | 1019.6 |
| 20260902191518 | 78 | 45 | 2.0 | 4.0 | 0.00 | 0.55 | 0.51 | 79 | 1019.7 |
| 20260902190518 | 79 | 47 | 2.0 | 4.0 | 0.00 | 0.55 | 0.51 | 79 | 1019.6 |
| 20260902185538 | 79 | 44 | 3.0 | 4.0 | 0.00 | 0.55 | 0.51 | 78 | 1019.5 |
| 20260902184516 | 79 | 52 | 3.0 | 4.0 | 0.00 | 0.55 | 0.51 | 78 | 1019.6 |
| 20260902183516 | 80 | 48 | 3.0 | 5.0 | 0.00 | 0.55 | 0.51 | 76 | 1019.6 |
| 20260902182516 | 80 | 46 | 3.0 | 5.0 | 0.00 | 0.55 | 0.51 | 75 | 1019.7 |
| 20260902181516 | 81 | 49 | 2.0 | 4.0 | 0.00 | 0.55 | 0.51 | 75 | 1019.8 |
| 20260902180536 | 80 | 47 | 3.0 | 8.0 | 0.00 | 0.55 | 0.51 | 74 | 1019.7 |
| 20260902173517 | 80 | 48 | 3.0 | 6.0 | 0.00 | 0.55 | 0.51 | 73 | 1019.9 |
| 20260902172517 | 80 | 50 | 3.0 | 6.0 | 0.00 | 0.55 | 0.51 | 73 | 1019.7 |
| 20260902171517 | 80 | 46 | 3.0 | 5.0 | 0.00 | 0.55 | 0.51 | 74 | 1019.5 |
| 20260902170517 | 80 | 43 | 3.0 | 6.0 | 0.00 | 0.55 | 0.51 | 74 | 1019.5 |
| 20260902165517 | 80 | 43 | 3.0 | 8.0 | 0.00 | 0.55 | 0.51 | 75 | 1019.4 |
| 20260902164517 | 80 | 49 | 3.0 | 6.0 | 0.00 | 0.55 | 0.51 | 75 | 1019.2 |
| 20260902163518 | 80 | 50 | 3.0 | 6.0 | 0.00 | 0.55 | 0.51 | 75 | 1019.1 |
| 20260902162518 | 80 | 49 | 3.0 | 6.0 | 0.00 | 0.55 | 0.51 | 75 | 1019.2 |
| 20260902161518 | 79 | 48 | 3.0 | 6.0 | 0.00 | 0.55 | 0.51 | 76 | 1019.3 |
| 20260902160518 | 79 | 47 | 4.0 | 9.0 | 0.00 | 0.55 | 0.51 | 77 | 1019.2 |
| 20260902155519 | 80 | 44 | 3.0 | 6.0 | 0.00 | 0.55 | 0.51 | 77 | 1019.1 |
| 20260902154519 | 80 | 45 | 3.0 | 8.0 | 0.00 | 0.55 | 0.51 | 77 | 1019.1 |
| 20260902153516 | 79 | 47 | 3.0 | 7.0 | 0.00 | 0.55 | 0.51 | 77 | 1019.3 |
| 20260902152522 | 79 | 56 | 2.0 | 4.0 | 0.00 | 0.55 | 0.51 | 79 | 1019.6 |
| 20260902151539 | 79 | 46 | 2.0 | 6.0 | 0.00 | 0.55 | 0.51 | 79 | 1019.7 |
| 20260902150519 | 78 | 37 | 2.0 | 5.0 | 0.00 | 0.55 | 0.51 | 80 | 1019.6 |
| 20260902145542 | 78 | 50 | 2.0 | 5.0 | 0.00 | 0.55 | 0.51 | 81 | 1019.6 |
| 20260902144522 | 78 | 44 | 2.0 | 4.0 | 0.00 | 0.55 | 0.51 | 82 | 1019.7 |
| 20260902143522 | 78 | 47 | 1.0 | 3.0 | 0.00 | 0.55 | 0.51 | 82 | 1019.7 |
| 20260902142518 | 78 | 44 | 1.0 | 5.0 | 0.00 | 0.55 | 0.51 | 82 | 1019.6 |
| 20260902141517 | 78 | 43 | 2.0 | 5.0 | 0.00 | 0.55 | 0.51 | 83 | 1019.5 |
| 20260902140517 | 78 | 51 | 2.0 | 6.0 | 0.00 | 0.55 | 0.51 | 82 | 1019.4 |
| 20260902135517 | 78 | 43 | 2.0 | 6.0 | 0.00 | 0.55 | 0.51 | 82 | 1019.3 |
| 20260902134517 | 77 | 36 | 2.0 | 5.0 | 0.00 | 0.55 | 0.51 | 85 | 1019.0 |
| 20260902133524 | 77 | 53 | 1.0 | 3.0 | 0.00 | 0.55 | 0.51 | 85 | 1018.7 |
| 20260902132523 | 77 | 38 | 3.0 | 5.0 | 0.00 | 0.55 | 0.51 | 85 | 1018.6 |
| 20260902131544 | 77 | 51 | 2.0 | 3.0 | 0.00 | 0.55 | 0.51 | 85 | 1018.6 |
| 20260902130521 | 77 | 46 | 2.0 | 5.0 | 0.00 | 0.55 | 0.51 | 86 | 1018.6 |
| 20260902125521 | 77 | 44 | 2.0 | 6.0 | 0.00 | 0.55 | 0.51 | 86 | 1018.6 |
| 20260902124524 | 77 | 52 | 2.0 | 4.0 | 0.00 | 0.55 | 0.51 | 87 | 1018.6 |
| 20260902123524 | 76 | 56 | 1.0 | 3.0 | 0.00 | 0.55 | 0.51 | 89 | 1018.5 |
| 20260902122524 | 75 | 43 | 1.0 | 4.0 | 0.00 | 0.55 | 0.51 | 91 | 1018.5 |
| 20260902121525 | 75 | 82 | 1.0 | 2.0 | 0.00 | 0.55 | 0.51 | 92 | 1018.6 |